Location: Chmeln�
(49.6483°N, 14.9871°E)
Time: 15:21:21
(UTC+00:00)

Meteor 2-9 Rocket - Pass Details

Date: 18 September 2020
Orbit: 791 x 896 km, 81.3° (Epoch: 24 October)

Event Time Altitude Azimuth Distance (km) Brightness Sun altitude
Rises 17:51:02 0° 185° (S) 3,498 7.3 -8.0°
Reaches altitude 10° 17:53:30 10° 184° (S) 2,561 6.6 -8.4°
Maximum altitude 17:59:20 78° 100° (E) 914 4.3 -9.4°
Drops below altitude 10° 18:05:08 10° 14° (NNE) 2,542 6.7 -10.3°
Sets 18:07:34 0° 14° (NNE) 3,471 7.4 -10.6°
